Abidjan, Ivory Coast

8:37 PM GMT on September 15, 2019 (GMT +0000)
Abidjan

Weather History for DIAP - August, 2019

Change the Weather History Date:

Monday, August 19, 2019

  Actual Average Record
Temperature  
Mean Temperature 77 °F -  
Max Temperature 82 °F 81 °F 84 °F (2010)
Min Temperature 72 °F 72 °F 69 °F (2004)
Cooling Degree Days 12    
Growing Degree Days 27 (Base 50)    
Moisture  
Dew Point 73 °F    
Average Humidity 87    
Maximum Humidity 100    
Minimum Humidity 70    
Precipitation  
Precipitation 0.00 in 0.08 in - ()
Sea Level Pressure  
Sea Level Pressure 29.93 in    
Wind  
Wind Speed 7 mph ()    
Max Wind Speed 15 mph    
Max Gust Speed -    
Visibility 5.6 miles    
Events      
Averages and records for this station are not official NWS values.
T = Trace of Precipitation, MM = Missing Value Source: Averaged Metar Reports

Daily Weather History Graph

Daily Weather History Graph

Search for Another Location

Airport or City:

Astronomy

Aug. 19, 2019 Rise Set
Actual Time 6:11 AM GMT 6:27 PM GMT
Civil Twilight 5:49 AM GMT 6:48 PM GMT
Nautical Twilight 5:25 AM GMT 7:13 PM GMT
Astronomical Twilight 5:00 AM GMT 7:38 PM GMT
Moon 9:24 PM GMT (8/19) 9:03 AM GMT (8/19)
Length of Visible Light 12h 58m
Length of Day
12h 16m
Waning Gibbous, 86% of the Moon is Illuminated
Aug 19
Waning Gibbous
Aug 23
Last Quarter
Aug 30
New
Sep 6
First Quarter
Sep 14
Full

Hourly Weather History & Observations

Time (GMT) Temp. Heat Index Dew Point Humidity Pressure Visibility Wind Dir Wind Speed Gust Speed Precip Events Conditions
12:00 AM 75 °F - 72 °F 88% 29.96 in 5 mi West 6.9 mph - -   Mostly Cloudy
12:00 AM 75.2 °F - 71.6 °F 89% 29.95 in 6.2 mi WSW 6.9 mph - N/A   Scattered Clouds
1:00 AM 73.4 °F - 73.4 °F 100% 29.92 in 6.2 mi WSW 5.8 mph - N/A   Scattered Clouds
1:30 AM 73.4 °F - 73.4 °F 100% 29.92 in 6.2 mi WSW 5.8 mph - N/A   Scattered Clouds
2:00 AM 73.4 °F - 73.4 °F 100% 29.92 in 6.2 mi WSW 5.8 mph - N/A   Scattered Clouds
2:30 AM 73.4 °F - 73.4 °F 100% 29.92 in 6.2 mi WSW 6.9 mph - N/A   Scattered Clouds
3:00 AM 74 °F - 73 °F 95% 29.92 in 5 mi West 6.9 mph - -   Mostly Cloudy
3:00 AM 73.4 °F - 73.4 °F 100% 29.92 in 6.2 mi WSW 6.9 mph - N/A   Mostly Cloudy
4:00 AM 73.4 °F - 71.6 °F 94% 29.89 in 5.0 mi WSW 6.9 mph - N/A   Mostly Cloudy
4:30 AM 73.4 °F - 71.6 °F 94% 29.89 in 5.0 mi WSW 5.8 mph - N/A   Mostly Cloudy
5:00 AM 73.4 °F - 71.6 °F 94% 29.89 in 5.0 mi SW 6.9 mph - N/A   Mostly Cloudy
5:30 AM 73.4 °F - 73.4 °F 100% 29.92 in 5.0 mi SW 6.9 mph - N/A   Mostly Cloudy
6:00 AM 73 °F - 73 °F 99% 29.92 in 5 mi WSW 6.9 mph - -   Overcast
6:00 AM 73.4 °F - 73.4 °F 100% 29.92 in 5.0 mi WSW 6.9 mph - N/A   Mostly Cloudy
7:00 AM 73.4 °F - 73.4 °F 100% 29.92 in 3.7 mi WSW 4.6 mph - N/A   Mostly Cloudy
7:30 AM 73.4 °F - 73.4 °F 100% 29.95 in 4.3 mi WSW 3.5 mph - N/A   Mostly Cloudy
8:00 AM 77.0 °F - 73.4 °F 89% 29.98 in 5.0 mi WSW 5.8 mph - N/A   Scattered Clouds
8:30 AM 78.8 °F - 73.4 °F 83% 29.98 in 5.0 mi WSW 8.1 mph - N/A   Mostly Cloudy
9:00 AM 78 °F - 74 °F 82% 29.99 in 5 mi WSW 6.9 mph - -   Mostly Cloudy
9:00 AM 80.6 °F 85.4 °F 73.4 °F 79% 29.98 in 5.0 mi WSW 9.2 mph - N/A   Mostly Cloudy
9:30 AM 80.6 °F 85.4 °F 73.4 °F 79% 29.98 in 5.0 mi WSW 9.2 mph - N/A   Mostly Cloudy
10:00 AM 80.6 °F 85.4 °F 73.4 °F 79% 29.98 in 5.0 mi WSW 10.4 mph - N/A   Mostly Cloudy
10:30 AM 80.6 °F 85.4 °F 73.4 °F 79% 29.98 in 6.2 mi WSW 11.5 mph - N/A   Scattered Clouds
11:00 AM 82.4 °F 88.2 °F 73.4 °F 74% 29.98 in 6.2 mi WSW 12.7 mph - N/A   Scattered Clouds
11:30 AM 82.4 °F 87.2 °F 71.6 °F 70% 29.98 in 6.2 mi WSW 13.8 mph - N/A   Scattered Clouds
12:00 PM 81 °F - 73 °F 72% 29.98 in 5 mi West 13.8 mph - -   Partly Cloudy
12:00 PM 82.4 °F 88.2 °F 73.4 °F 74% 29.98 in 6.2 mi WSW 12.7 mph - N/A   Scattered Clouds
12:30 PM 80.6 °F 85.4 °F 73.4 °F 79% 29.95 in 6.2 mi WSW 15.0 mph - N/A   Scattered Clouds
1:00 PM 82.4 °F 87.2 °F 71.6 °F 70% 29.95 in 6.2 mi WSW 13.8 mph - N/A   Scattered Clouds
1:30 PM 82.4 °F 87.2 °F 71.6 °F 70% 29.92 in 6.2 mi SW 12.7 mph - N/A   Mostly Cloudy
2:00 PM 80.6 °F 85.4 °F 73.4 °F 79% 29.92 in 6.2 mi WSW 13.8 mph - N/A   Mostly Cloudy
3:00 PM 80 °F - 73 °F 74% 29.91 in 5 mi WSW 11.5 mph - -   Partly Cloudy
3:00 PM 80.6 °F 85.4 °F 73.4 °F 79% 29.92 in 6.2 mi WSW 11.5 mph - N/A   Mostly Cloudy
3:30 PM 80.6 °F 85.4 °F 73.4 °F 79% 29.89 in 6.2 mi WSW 11.5 mph - N/A   Mostly Cloudy
4:00 PM 78.8 °F - 73.4 °F 83% 29.89 in 6.2 mi WSW 10.4 mph - N/A   Mostly Cloudy
4:30 PM 78.8 °F - 71.6 °F 78% 29.89 in 6.2 mi WSW 10.4 mph - N/A   Mostly Cloudy
5:00 PM 78.8 °F - 71.6 °F 78% 29.89 in 6.2 mi WSW 10.4 mph - N/A   Mostly Cloudy
5:30 PM 77.0 °F - 73.4 °F 89% 29.89 in 6.2 mi WSW 9.2 mph - N/A   Mostly Cloudy
6:00 PM 77 °F - 73 °F 83% 29.89 in 5 mi WSW 9.2 mph - -   Partly Cloudy
6:00 PM 78.8 °F - 71.6 °F 78% 29.89 in 6.2 mi SW 10.4 mph - N/A   Mostly Cloudy
6:30 PM 77.0 °F - 73.4 °F 89% 29.89 in 6.2 mi SW 9.2 mph - N/A   Mostly Cloudy
7:00 PM 77.0 °F - 73.4 °F 89% 29.89 in 6.2 mi SSW 4.6 mph - N/A   Mostly Cloudy
7:30 PM 77.0 °F - 73.4 °F 89% 29.92 in 6.2 mi SW 8.1 mph - N/A   Partly Cloudy
8:00 PM 77.0 °F - 73.4 °F 89% 29.92 in 6.2 mi SW 5.8 mph - N/A   Partly Cloudy
9:00 PM 76 °F - 74 °F 91% 29.94 in 5 mi SW 6.9 mph - -   Partly Cloudy
10:00 PM 75.2 °F - 73.4 °F 94% 29.95 in 6.2 mi SW 10.4 mph - N/A   Partly Cloudy
10:30 PM 75.2 °F - 73.4 °F 94% 29.95 in 6.2 mi SW 6.9 mph - N/A   Scattered Clouds
11:00 PM 75.2 °F - 73.4 °F 94% 29.95 in 5.0 mi WSW 8.1 mph - N/A   Scattered Clouds
11:30 PM 75.2 °F - 75.2 °F 100% 29.95 in 5.0 mi WSW 6.9 mph - N/A   Mostly Cloudy